Home   Weather   Emmerich am Rhein   Past weeks

Flag for Germany Past Weather in Emmerich am Rhein, North Rhine-Westphalia, Germany — Yesterday and Last 2 Weeks

Now
68 °F

Passing clouds.


Feels Like: 68 °F
Forecast: 58 / 70 °F
Wind: 5 mph from East

Location: Niederrhein

Current Time: Jul 22, 2017 at 2:56:57 am

Latest Report: Jul 21, 2017 at 11:50 pm


Visibility: N/A

Pressure: 29.86 "Hg

Humidity: 60%

Dew Point: 54 °F

Location of Emmerich am RheinLocation

Past Weather in Emmerich am Rhein — Graph

°F

Emmerich am Rhein Temperature Yesterday

Maximum temperature yesterday: 77 °F (at 6:20 pm)
Minimum temperature yesterday: 48 °F (at 5:50 am)
Average temperature yesterday: 67 °F

High & Low Weather Summary for the Past Weeks

 TemperatureHumidityPressure
High88 °F (Jul 19, 1:50 pm)100% (Jul 6, 11:50 pm)30.27 "Hg (Jul 6, 11:50 pm)
Low46 °F (Jul 13, 5:20 am)37% (Jul 10, 4:20 pm)29.71 "Hg (Jul 12, 10:20 am)
Average68 °F70%30.02 "Hg
* Reported Jul 6 11:20 pm — Jul 21 11:50 pm, Emmerich am Rhein. Weather by CustomWeather, © 2017

Note: Actual official high and low records may vary slightly from our data, if they occured in-between our weather recording intervals... More about our weather records

Advertising

Emmerich am Rhein Weather History for the Previous 24 Hours

Scroll right to see more
 ConditionsComfort  
Time TempWeatherWind HumidityBarometerVisibility
11:50 pm
Fri, Jul 21
68 °FPassing clouds.5 mph60%29.86 "HgN/A
11:20 pm68 °FPassing clouds.5 mph60%29.86 "HgN/A
10:50 pm68 °FPassing clouds.5 mph56%29.86 "HgN/A
10:20 pm68 °FSunny.3 mph56%29.89 "Hg10 mi
9:20 pm70 °FSunny.3 mph53%29.89 "Hg10 mi
8:50 pm72 °FPassing clouds.5 mph50%29.89 "HgN/A
8:20 pm73 °FSunny.3 mph47%29.89 "Hg10 mi
7:50 pm75 °FPassing clouds.5 mph44%29.89 "HgN/A
7:20 pm77 °FSunny.3 mph42%29.89 "Hg10 mi
6:50 pm77 °FPassing clouds.5 mph39%29.89 "HgN/A
6:20 pm77 °FSunny.3 mph39%29.89 "Hg10 mi
5:50 pm75 °FSunny.5 mph39%29.92 "Hg10 mi
5:20 pm75 °FSunny.5 mph39%29.92 "Hg10 mi
4:50 pm75 °FPassing clouds.6 mph39%29.95 "HgN/A
4:20 pm75 °FPassing clouds.7 mph41%29.95 "HgN/A
3:20 pm73 °FPassing clouds.7 mph38%29.95 "HgN/A
2:50 pm75 °FSunny.6 mph39%29.98 "Hg10 mi
2:20 pm72 °FSunny.7 mph41%29.98 "Hg10 mi
1:50 pm72 °FPassing clouds.7 mph41%29.98 "HgN/A
1:20 pm72 °FSunny.7 mph41%29.98 "Hg10 mi
12:50 pm72 °FPassing clouds.6 mph44%29.98 "HgN/A
12:20 pm70 °FPassing clouds.7 mph46%30.01 "HgN/A
11:50 am70 °FPassing clouds.8 mph46%30.01 "HgN/A
11:20 am68 °FPassing clouds.7 mph53%30.01 "HgN/A
10:50 am66 °FPassing clouds.7 mph52%30.01 "HgN/A
10:20 am66 °FPassing clouds.5 mph56%30.01 "HgN/A
9:50 am64 °FPassing clouds.6 mph60%30.01 "HgN/A
9:20 am63 °FPassing clouds.6 mph64%30.01 "HgN/A
8:50 am61 °FPassing clouds.6 mph72%30.01 "HgN/A
8:20 am59 °FPassing clouds.5 mph77%30.01 "HgN/A
7:50 am57 °FPassing clouds.6 mph77%30.01 "HgN/A
7:20 am55 °FPassing clouds.5 mph82%30.01 "HgN/A
6:50 am50 °FSunny.2 mph94%30.01 "Hg10 mi
6:20 am48 °FClear.3 mph100%30.01 "Hg10 mi
5:50 am48 °FClear.1 mph100%30.01 "Hg10 mi
5:20 am50 °FClear.No wind94%29.98 "Hg10 mi
4:50 am52 °FClear.3 mph82%29.98 "Hg10 mi
Weather by CustomWeather, © 2017

See weather overviewHow to use our weather pages